User: anonymous   Login
Location: Unspecified
(0.0000°N, 0.0000°E)
Time: 00:54:49
(UTC+02:00)
Language:

Ariane H10 - Orbit

View from above orbital plane
View from above orbital plane
View from above satellite
View from above satellite

Ground track
Ground track

The orbit data is extracted from the following two-line orbital elements,

1 21815U 91084C   15108.79074230  .00000834  00000-0  23172-2 0  9998
2 21815 004.1064 045.7777 7196401 151.5161 038.0939 02.31268800194016
Epoch (UTC): 18 April 2015 18:58:40
Eccentricity: 0.7196401
inclination: 4.1064°
perigee height: 393 km
apogee height: 35158 km
right ascension of ascending node: 45.7777°
argument of perigee: 151.5161°
revolutions per day: 2.31268800
mean anomaly at epoch: 38.0939°
orbit number at epoch: 19401

The dashed part of the orbit path shows where the satellite is in the earth's shadow,  

DLR